Time,TemperatureF,DewpointF,PressureIn,WindDirection,WindDirectionDegrees,WindSpeedMPH,WindSpeedGustMPH,Humidity,HourlyPrecipIn,Conditions,Clouds,dailyrainin,SoftwareType,DateUTC
2013-02-28 00:01:00,20.0,10.0,30.19,SSE,166,4.0,7.0,65,0.00,,,-99.99,,2013-02-28 07:01:00,
2013-02-28 00:11:00,20.0,10.0,30.20,South,174,6.0,8.0,65,0.00,,,-99.99,,2013-02-28 07:11:00,
2013-02-28 00:21:00,20.0,9.0,30.20,South,188,7.0,7.0,63,0.00,,,-99.99,,2013-02-28 07:21:00,
2013-02-28 00:31:00,20.0,9.0,30.20,SE,134,4.0,8.0,63,0.00,,,-99.99,,2013-02-28 07:31:00,
2013-02-28 00:41:00,18.0,9.0,30.20,SE,143,5.0,8.0,64,0.00,,,-99.99,,2013-02-28 07:41:00,
2013-02-28 00:51:00,18.0,8.0,30.21,SE,126,4.0,7.0,65,0.00,,,-99.99,,2013-02-28 07:51:00,
2013-02-28 01:01:00,18.0,8.0,30.21,SE,146,5.0,7.0,66,0.00,,,-99.99,,2013-02-28 08:01:00,
2013-02-28 01:11:00,17.0,8.0,30.23,SSE,159,5.0,6.0,68,0.00,,,-99.99,,2013-02-28 08:11:00,
2013-02-28 01:22:00,17.0,8.0,30.23,SSE,164,5.0,6.0,66,0.00,,,-99.99,,2013-02-28 08:22:00,
2013-02-28 01:32:00,18.0,8.0,30.23,SSW,199,4.0,7.0,66,0.00,,,-99.99,,2013-02-28 08:32:00,
2013-02-28 01:42:00,16.0,8.0,30.23,SSE,150,5.0,7.0,66,0.00,,,-99.99,,2013-02-28 08:42:00,
2013-02-28 01:52:00,17.0,8.0,30.23,SSE,160,5.0,8.0,67,0.00,,,-99.99,,2013-02-28 08:52:00,
2013-02-28 02:03:00,18.0,8.0,30.23,SSW,199,3.0,7.0,67,0.00,,,-99.99,,2013-02-28 09:03:00,
2013-02-28 02:11:00,17.0,8.0,30.23,SSE,164,7.0,9.0,67,0.00,,,-99.99,,2013-02-28 09:11:00,
2013-02-28 02:21:00,17.0,8.0,30.23,SSW,193,6.0,9.0,69,0.00,,,-99.99,,2013-02-28 09:21:00,
2013-02-28 02:32:00,18.0,8.0,30.23,SSW,204,8.0,9.0,67,0.00,,,-99.99,,2013-02-28 09:32:00,
2013-02-28 02:42:00,18.0,7.0,30.23,South,190,9.0,11.0,62,0.00,,,-99.99,,2013-02-28 09:42:00,
2013-02-28 02:52:00,17.0,7.0,30.23,South,190,7.0,11.0,63,0.00,,,-99.99,,2013-02-28 09:52:00,
2013-02-28 03:01:00,17.0,6.0,30.23,South,180,7.0,11.0,61,0.00,,,-99.99,,2013-02-28 10:01:00,
2013-02-28 03:11:00,17.0,6.0,30.21,South,181,8.0,13.0,61,0.00,,,-99.99,,2013-02-28 10:11:00,
2013-02-28 03:21:00,18.0,6.0,30.21,South,191,8.0,11.0,60,0.00,,,-99.99,,2013-02-28 10:21:00,
2013-02-28 03:32:00,18.0,6.0,30.21,South,184,8.0,10.0,59,0.00,,,-99.99,,2013-02-28 10:32:00,
2013-02-28 03:42:00,18.0,6.0,30.21,South,184,8.0,10.0,59,0.00,,,-99.99,,2013-02-28 10:42:00,
2013-02-28 03:52:00,18.0,6.0,30.21,South,184,8.0,10.0,59,0.00,,,-99.99,,2013-02-28 10:52:00,
2013-02-28 04:01:00,18.0,6.0,30.21,South,184,8.0,10.0,59,0.00,,,-99.99,,2013-02-28 11:01:00,
2013-02-28 04:11:00,18.0,6.0,30.21,South,184,8.0,10.0,59,0.00,,,-99.99,,2013-02-28 11:11:00,
2013-02-28 04:42:00,18.0,5.0,30.20,South,174,7.0,13.0,55,0.00,,,-99.99,,2013-02-28 11:42:00,
2013-02-28 04:52:00,18.0,4.0,30.19,South,179,7.0,9.0,55,0.00,,,-99.99,,2013-02-28 11:52:00,
2013-02-28 05:02:00,18.0,4.0,30.19,South,176,7.0,13.0,55,0.00,,,-99.99,,2013-02-28 12:02:00,
2013-02-28 05:11:00,18.0,5.0,30.19,SSW,192,9.0,12.0,55,0.00,,,-99.99,,2013-02-28 12:11:00,
2013-02-28 05:21:00,18.0,5.0,30.19,South,187,11.0,13.0,54,0.00,,,-99.99,,2013-02-28 12:21:00,
2013-02-28 05:32:00,19.0,4.0,30.19,SSW,198,5.0,15.0,52,0.00,,,-99.99,,2013-02-28 12:32:00,
2013-02-28 05:42:00,19.0,4.0,30.19,South,178,7.0,13.0,53,0.00,,,-99.99,,2013-02-28 12:42:00,
2013-02-28 05:52:00,18.0,4.0,30.20,SSW,209,6.0,11.0,53,0.00,,,-99.99,,2013-02-28 12:52:00,
2013-02-28 06:01:00,18.0,4.0,30.19,SSW,196,7.0,12.0,53,0.00,,,-99.99,,2013-02-28 13:01:00,
2013-02-28 06:11:00,19.0,4.0,30.19,SSW,192,9.0,12.0,52,0.00,,,-99.99,,2013-02-28 13:11:00,
2013-02-28 06:21:00,19.0,4.0,30.19,SSW,203,6.0,12.0,51,0.00,,,-99.99,,2013-02-28 13:21:00,
2013-02-28 06:32:00,19.0,4.0,30.19,South,180,6.0,15.0,51,0.00,,,-99.99,,2013-02-28 13:32:00,
2013-02-28 06:42:00,19.0,4.0,30.19,SSW,207,9.0,10.0,51,0.00,,,-99.99,,2013-02-28 13:42:00,
2013-02-28 06:52:00,19.0,3.0,30.19,SSW,206,7.0,13.0,51,0.00,,,-99.99,,2013-02-28 13:52:00,
2013-02-28 07:01:00,19.0,3.0,30.20,SSW,193,7.0,12.0,50,0.00,,,-99.99,,2013-02-28 14:01:00,
2013-02-28 07:11:00,20.0,3.0,30.20,South,170,6.0,9.0,48,0.00,,,-99.99,,2013-02-28 14:11:00,
2013-02-28 07:21:00,20.0,3.0,30.20,South,180,7.0,9.0,47,0.00,,,-99.99,,2013-02-28 14:21:00,
2013-02-28 07:32:00,21.0,3.0,30.20,SSW,202,7.0,12.0,46,0.00,,,-99.99,,2013-02-28 14:32:00,
2013-02-28 07:42:00,22.0,2.0,30.20,SSW,213,7.0,13.0,43,0.00,,,-99.99,,2013-02-28 14:42:00,
2013-02-28 07:52:00,23.0,3.0,30.20,SSW,204,5.0,11.0,42,0.00,,,-99.99,,2013-02-28 14:52:00,
2013-02-28 08:02:00,23.0,3.0,30.21,South,174,4.0,9.0,41,0.00,,,-99.99,,2013-02-28 15:02:00,
2013-02-28 08:11:00,25.0,3.0,30.21,SSW,198,5.0,8.0,39,0.00,,,-99.99,,2013-02-28 15:11:00,
2013-02-28 08:21:00,25.0,3.0,30.21,SSW,197,7.0,8.0,38,0.00,,,-99.99,,2013-02-28 15:21:00,
2013-02-28 08:32:00,26.0,3.0,30.21,SSW,204,5.0,6.0,37,0.00,,,-99.99,,2013-02-28 15:32:00,
2013-02-28 08:41:00,27.0,4.0,30.21,SW,219,5.0,5.0,36,0.00,,,-99.99,,2013-02-28 15:41:00,
2013-02-28 08:52:00,28.0,3.0,30.21,South,177,5.0,7.0,34,0.00,,,-99.99,,2013-02-28 15:52:00,
2013-02-28 09:01:00,29.0,3.0,30.21,SSW,201,5.0,7.0,32,0.00,,,-99.99,,2013-02-28 16:01:00,
2013-02-28 09:11:00,30.0,3.0,30.21,SSW,207,3.0,6.0,32,0.00,,,-99.99,,2013-02-28 16:11:00,
2013-02-28 09:22:00,31.0,4.0,30.21,SW,220,4.0,6.0,31,0.00,,,-99.99,,2013-02-28 16:22:00,
2013-02-28 09:32:00,32.0,4.0,30.21,SSW,203,5.0,7.0,30,0.00,,,-99.99,,2013-02-28 16:32:00,
2013-02-28 09:42:00,33.0,4.0,30.21,SSW,198,1.0,6.0,29,0.00,,,-99.99,,2013-02-28 16:42:00,
2013-02-28 09:52:00,34.0,5.0,30.21,SSW,205,3.0,6.0,28,0.00,,,-99.99,,2013-02-28 16:52:00,
2013-02-28 10:01:00,35.0,4.0,30.23,SW,225,3.0,5.0,27,0.00,,,-99.99,,2013-02-28 17:01:00,
2013-02-28 10:11:00,38.0,4.0,30.23,NW,320,0.0,4.0,26,0.00,,,-99.99,,2013-02-28 17:11:00,
2013-02-28 10:21:00,39.0,4.0,30.23,West,270,1.0,3.0,22,0.00,,,-99.99,,2013-02-28 17:21:00,
2013-02-28 10:32:00,41.0,3.0,30.21,SW,214,2.0,2.0,20,0.00,,,-99.99,,2013-02-28 17:32:00,
2013-02-28 10:42:00,40.0,4.0,30.23,SW,229,1.0,5.0,23,0.00,,,-99.99,,2013-02-28 17:42:00,
2013-02-28 10:52:00,40.0,3.0,30.23,NNW,330,1.0,5.0,21,0.00,,,-99.99,,2013-02-28 17:52:00,
2013-02-28 11:02:00,41.0,1.0,30.21,NNW,327,1.0,4.0,18,0.00,,,-99.99,,2013-02-28 18:02:00,
2013-02-28 11:11:00,44.0,0.0,30.21,ENE,69,1.0,3.0,16,0.00,,,-99.99,,2013-02-28 18:11:00,
2013-02-28 11:22:00,43.0,-1.0,30.21,West,272,1.0,4.0,15,0.00,,,-99.99,,2013-02-28 18:22:00,
2013-02-28 11:32:00,40.0,5.0,30.21,SSW,193,4.0,10.0,23,0.00,,,-99.99,,2013-02-28 18:32:00,
2013-02-28 11:42:00,40.0,3.0,30.20,South,191,5.0,9.0,21,0.00,,,-99.99,,2013-02-28 18:42:00,
2013-02-28 11:52:00,42.0,4.0,30.20,WSW,248,4.0,7.0,21,0.00,,,-99.99,,2013-02-28 18:52:00,
2013-02-28 12:01:00,43.0,1.0,30.19,WSW,241,4.0,5.0,17,0.00,,,-99.99,,2013-02-28 19:01:00,
2013-02-28 12:11:00,41.0,4.0,30.20,NNW,329,3.0,16.0,21,0.00,,,-99.99,,2013-02-28 19:11:00,
2013-02-28 12:21:00,41.0,5.0,30.19,NW,316,5.0,15.0,21,0.00,,,-99.99,,2013-02-28 19:21:00,
2013-02-28 12:32:00,40.0,5.0,30.18,WNW,287,13.0,24.0,23,0.00,,,-99.99,,2013-02-28 19:32:00,
2013-02-28 12:41:00,40.0,7.0,30.18,WNW,293,16.0,26.0,25,0.00,,,-99.99,,2013-02-28 19:41:00,
2013-02-28 12:51:00,40.0,5.0,30.17,West,279,16.0,25.0,23,0.00,,,-99.99,,2013-02-28 19:51:00,
2013-02-28 13:01:00,40.0,5.0,30.17,WNW,302,23.0,24.0,22,0.00,,,-99.99,,2013-02-28 20:01:00,
2013-02-28 13:12:00,40.0,5.0,30.15,WNW,284,15.0,26.0,23,0.00,,,-99.99,,2013-02-28 20:12:00,
2013-02-28 13:21:00,41.0,7.0,30.15,West,281,15.0,22.0,24,0.00,,,-99.99,,2013-02-28 20:21:00,
2013-02-28 13:32:00,41.0,7.0,30.14,WNW,286,15.0,22.0,24,0.00,,,-99.99,,2013-02-28 20:32:00,
2013-02-28 13:41:00,40.0,5.0,30.14,NW,312,13.0,27.0,23,0.00,,,-99.99,,2013-02-28 20:41:00,
2013-02-28 13:52:00,40.0,5.0,30.13,WNW,283,14.0,25.0,23,0.00,,,-99.99,,2013-02-28 20:52:00,
2013-02-28 14:01:00,41.0,7.0,30.13,WNW,283,16.0,19.0,24,0.00,,,-99.99,,2013-02-28 21:01:00,
2013-02-28 14:11:00,41.0,7.0,30.13,WSW,255,9.0,25.0,25,0.00,,,-99.99,,2013-02-28 21:11:00,
2013-02-28 14:22:00,41.0,6.0,30.13,West,272,14.0,23.0,24,0.00,,,-99.99,,2013-02-28 21:22:00,
2013-02-28 14:32:00,41.0,7.0,30.12,WNW,291,18.0,28.0,24,0.00,,,-99.99,,2013-02-28 21:32:00,
2013-02-28 14:41:00,41.0,7.0,30.12,West,281,22.0,28.0,24,0.00,,,-99.99,,2013-02-28 21:41:00,
2013-02-28 14:51:00,41.0,8.0,30.12,West,267,20.0,29.0,25,0.00,,,-99.99,,2013-02-28 21:51:00,
2013-02-28 15:01:00,41.0,9.0,30.12,WSW,257,17.0,26.0,27,0.00,,,-99.99,,2013-02-28 22:01:00,
2013-02-28 15:11:00,41.0,10.0,30.12,WNW,292,20.0,24.0,28,0.00,,,-99.99,,2013-02-28 22:11:00,
2013-02-28 15:21:00,41.0,9.0,30.13,West,278,16.0,23.0,26,0.00,,,-99.99,,2013-02-28 22:21:00,
2013-02-28 15:32:00,41.0,9.0,30.13,WNW,293,13.0,25.0,26,0.00,,,-99.99,,2013-02-28 22:32:00,
2013-02-28 15:41:00,41.0,10.0,30.13,West,276,19.0,24.0,27,0.00,,,-99.99,,2013-02-28 22:41:00,
2013-02-28 15:52:00,40.0,10.0,30.13,WNW,302,15.0,27.0,28,0.00,,,-99.99,,2013-02-28 22:52:00,
2013-02-28 16:01:00,40.0,10.0,30.13,West,281,17.0,28.0,28,0.00,,,-99.99,,2013-02-28 23:01:00,
2013-02-28 16:11:00,41.0,10.0,30.14,WNW,289,16.0,23.0,28,0.00,,,-99.99,,2013-02-28 23:11:00,
2013-02-28 16:21:00,41.0,10.0,30.14,WNW,286,11.0,28.0,28,0.00,,,-99.99,,2013-02-28 23:21:00,
2013-02-28 16:31:00,40.0,10.0,30.14,WNW,293,21.0,30.0,29,0.00,,,-99.99,,2013-02-28 23:31:00,
2013-02-28 16:41:00,40.0,10.0,30.14,WNW,295,16.0,30.0,29,0.00,,,-99.99,,2013-02-28 23:41:00,
2013-02-28 16:52:00,39.0,10.0,30.14,West,281,15.0,30.0,30,0.00,,,-99.99,,2013-02-28 23:52:00,
2013-02-28 17:01:00,39.0,11.0,30.14,WNW,292,15.0,22.0,31,0.00,,,-99.99,,2013-03-01 00:01:00,
2013-02-28 17:11:00,38.0,11.0,30.15,NW,311,15.0,26.0,31,0.00,,,-99.99,,2013-03-01 00:11:00,
2013-02-28 17:22:00,38.0,11.0,30.15,WNW,292,10.0,22.0,32,0.00,,,-99.99,,2013-03-01 00:22:00,
2013-02-28 17:32:00,38.0,11.0,30.15,WNW,285,13.0,20.0,32,0.00,,,-99.99,,2013-03-01 00:32:00,
2013-02-28 17:41:00,38.0,11.0,30.17,NW,308,16.0,22.0,32,0.00,,,-99.99,,2013-03-01 00:41:00,
2013-02-28 17:51:00,38.0,11.0,30.17,WNW,294,11.0,17.0,34,0.00,,,-99.99,,2013-03-01 00:51:00,
2013-02-28 18:01:00,37.0,12.0,30.17,WNW,298,9.0,15.0,35,0.00,,,-99.99,,2013-03-01 01:01:00,
2013-02-28 18:11:00,37.0,12.0,30.17,NW,317,6.0,14.0,36,0.00,,,-99.99,,2013-03-01 01:11:00,
2013-02-28 18:21:00,37.0,12.0,30.17,West,281,8.0,12.0,35,0.00,,,-99.99,,2013-03-01 01:21:00,
2013-02-28 18:31:00,37.0,11.0,30.17,West,278,10.0,13.0,34,0.00,,,-99.99,,2013-03-01 01:31:00,
2013-02-28 18:42:00,36.0,11.0,30.17,West,281,11.0,11.0,34,0.00,,,-99.99,,2013-03-01 01:42:00,
2013-02-28 18:51:00,36.0,11.0,30.17,WNW,302,11.0,17.0,35,0.00,,,-99.99,,2013-03-01 01:51:00,
2013-02-28 19:01:00,36.0,12.0,30.18,West,272,8.0,14.0,36,0.00,,,-99.99,,2013-03-01 02:01:00,
2013-02-28 19:11:00,36.0,11.0,30.18,West,277,10.0,13.0,35,0.00,,,-99.99,,2013-03-01 02:11:00,
2013-02-28 19:21:00,36.0,11.0,30.19,WNW,296,8.0,13.0,34,0.00,,,-99.99,,2013-03-01 02:21:00,
2013-02-28 19:31:00,36.0,11.0,30.19,WNW,287,10.0,12.0,35,0.00,,,-99.99,,2013-03-01 02:31:00,
2013-02-28 19:42:00,37.0,11.0,30.19,West,275,9.0,13.0,33,0.00,,,-99.99,,2013-03-01 02:42:00,
2013-02-28 19:52:00,38.0,10.0,30.19,WNW,287,17.0,20.0,31,0.00,,,-99.99,,2013-03-01 02:52:00,
2013-02-28 20:01:00,38.0,11.0,30.19,WNW,286,10.0,21.0,32,0.00,,,-99.99,,2013-03-01 03:01:00,
2013-02-28 20:11:00,37.0,11.0,30.19,NW,322,5.0,15.0,33,0.00,,,-99.99,,2013-03-01 03:11:00,
2013-02-28 20:21:00,37.0,11.0,30.19,WNW,291,16.0,17.0,33,0.00,,,-99.99,,2013-03-01 03:21:00,
2013-02-28 20:32:00,37.0,11.0,30.19,WNW,286,11.0,20.0,34,0.00,,,-99.99,,2013-03-01 03:32:00,
2013-02-28 20:41:00,37.0,11.0,30.20,NW,308,5.0,15.0,35,0.00,,,-99.99,,2013-03-01 03:41:00,
2013-02-28 20:51:00,37.0,11.0,30.20,NW,318,10.0,13.0,34,0.00,,,-99.99,,2013-03-01 03:51:00,
2013-02-28 21:01:00,37.0,11.0,30.21,NW,321,4.0,9.0,34,0.00,,,-99.99,,2013-03-01 04:01:00,
2013-02-28 21:11:00,36.0,13.0,30.21,NNE,21,5.0,6.0,37,0.00,,,-99.99,,2013-03-01 04:11:00,
2013-02-28 21:21:00,36.0,13.0,30.21,ENE,66,2.0,6.0,39,0.00,,,-99.99,,2013-03-01 04:21:00,
2013-02-28 21:32:00,36.0,13.0,30.20,NNW,342,2.0,5.0,37,0.00,,,-99.99,,2013-03-01 04:32:00,
2013-02-28 21:42:00,35.0,13.0,30.20,NW,310,4.0,5.0,39,0.00,,,-99.99,,2013-03-01 04:42:00,
2013-02-28 21:51:00,35.0,13.0,30.20,WNW,292,4.0,7.0,39,0.00,,,-99.99,,2013-03-01 04:51:00,
2013-02-28 22:02:00,36.0,12.0,30.20,WNW,298,7.0,11.0,38,0.00,,,-99.99,,2013-03-01 05:02:00,
2013-02-28 22:11:00,36.0,12.0,30.20,WNW,289,6.0,9.0,36,0.00,,,-99.99,,2013-03-01 05:11:00,
2013-02-28 22:22:00,36.0,12.0,30.20,WNW,296,7.0,9.0,37,0.00,,,-99.99,,2013-03-01 05:22:00,
2013-02-28 22:32:00,36.0,11.0,30.19,West,281,5.0,13.0,36,0.00,,,-99.99,,2013-03-01 05:32:00,
2013-02-28 22:42:00,36.0,12.0,30.18,WNW,293,9.0,17.0,36,0.00,,,-99.99,,2013-03-01 05:42:00,
2013-02-28 22:52:00,36.0,12.0,30.18,West,277,9.0,15.0,36,0.00,,,-99.99,,2013-03-01 05:52:00,
2013-02-28 23:02:00,36.0,11.0,30.18,WNW,282,11.0,15.0,35,0.00,,,-99.99,,2013-03-01 06:02:00,
2013-02-28 23:11:00,37.0,11.0,30.18,NW,316,7.0,17.0,33,0.00,,,-99.99,,2013-03-01 06:11:00,
2013-02-28 23:21:00,37.0,11.0,30.18,WNW,282,10.0,16.0,33,0.00,,,-99.99,,2013-03-01 06:21:00,
2013-02-28 23:32:00,36.0,11.0,30.18,WNW,299,9.0,15.0,34,0.00,,,-99.99,,2013-03-01 06:32:00,
2013-02-28 23:42:00,36.0,11.0,30.18,NW,305,5.0,11.0,35,0.00,,,-99.99,,2013-03-01 06:42:00,
2013-02-28 23:52:00,36.0,11.0,30.19,WNW,301,4.0,9.0,34,0.00,,,-99.99,,2013-03-01 06:52:00,